Cloud_Cover
36 0 0 0 7 15 10 1 4 0 0 0 0 0 15 8 14 0 0 0 0 0 16 2 0 0 5 33 21 72 66 35 39 97 38 29 32 15 24 69 86 69 81 44 12
0 0 0 0 0 0 2 1 0 0 0 0 0 5 20 26 42 0 0 0 0 0 38 0 0 0 6 14 30 94 100 79 3 1 2 46 100 67 28 5 23 14 63 14 18
0 0 0 0 0 0 0 0 0 0 0 0 1 8 12 34 14 0 0 0 0 0 0 0 0 0 18 97 16 71 100 100 95 20 3 20 9 34 32 100 100 100 86 24 9
0 0 0 0 0 0 0 0 0 0 0 4 5 12 0 60 0 0 0 0 0 0 0 0 0 32 62 26 5 5 37 97 88 14 5 12 45 89 19 28 5 54 2 0 0
0 0 0 0 0 0 0 0 0 0 0 4 15 27 1 0 0 0 0 0 0 0 0 0 0 1 1 5 5 5 95 81 87 14 5 5 0 3 37 12 5 0 0 0 0
0 0 0 0 0 0 0 0 0 0 0 5 40 22 16 0 0 0 0 0 0 0 0 0 0 0 0 5 4 5 45 99 19 5 3 4 1 0 5 54 5 4 4 0 0
0 0 0 0 0 0 0 0 1 15 8 23 94 32 0 0 0 0 0 0 0 0 0 0 0 0 0 1 4 5 2 7 5 0 0 0 0 0 1 5 84 5 5 0 0
0 0 0 0 0 0 0 0 0 8 4 66 100 24 0 0 0 0 0 0 0 0 0 0 0 0 0 0 0 0 0 0 0 0 0 0 0 4 4 6 83 4 5 0 0
0 0 0 0 0 0 0 0 11 23 12 21 24 16 0 0 0 0 0 0 0 0 0 0 0 0 0 0 0 0 0 0 0 0 0 0 1 5 5 5 23 2 0 1 0
1 5 0 0 0 0 0 0 26 48 41 28 6 16 0 0 0 0 0 0 0 0 0 0 0 0 0 0 0 0 0 0 0 0 0 0 4 5 12 84 32 64 0 4 0
0 0 0 0 0 0 0 0 0 0 1 0 0 0 0 0 0 0 0 0 0 0 0 0 0 0 0 0 0 0 0 0 0 0 0 0 1 2 20 5 50 52 70 0 0
0 3 3 0 0 0 0 0 0 0 0 0 0 0 0 0 0 0 0 0 0 0 0 0 0 0 0 0 0 0 0 0 0 0 0 0 4 0 5 70 78 86 21 14 0
0 0 0 0 0 0 0 0 0 0 0 0 0 0 0 0 0 0 0 0 0 0 0 0 0 0 0 0 0 0 0 0 0 0 0 0 0 5 4 3 23 24 5 1 0
0 0 0 0 0 0 0 0 0 0 0 0 0 0 0 0 0 0 0 0 0 0 0 0 0 0 0 0 0 0 0 0 0 0 1 1 0 4 4 0 0 4 0 0 0
0 0 0 0 0 0 0 0 0 0 0 0 0 0 0 0 0 0 0 0 0 0 0 0 0 0 0 0 0 0 0 0 0 0 0 0 0 0 0 0 0 1 2 0 0
0 0 0 12 5 4 0 0 0 0 0 0 0 0 0 0 0 0 0 0 0 0 0 0 0 0 0 0 0 0 0 0 0 0 1 0 0 0 0 3 0 2 5 3 2
0 0 0 0 0 0 0 0 0 0 0 0 0 0 0 0 0 0 0 0 0 0 0 0 0 0 0 0 0 0 0 0 0 0 35 0 1 0 0 3 2 0 5 5 5
0 0 0 0 0 0 0 0 0 0 0 0 0 0 0 0 0 0 0 0 0 0 0 0 0 0 0 0 0 0 0 0 0 0 0 0 59 0 1 4 5 56 81 86 5
0 1 0 0 0 0 0 0 0 0 0 0 0 0 0 0 0 0 0 0 0 0 0 0 0 0 0 0 0 0 0 0 0 0 0 2 4 5 0 0 5 57 83 8 5
22 77 0 0 0 0 0 0 0 0 0 0 0 0 0 0 0 0 0 0 0 0 0 0 0 0 0 0 0 0 0 0 0 0 0 0 0 5 49 3 4 5 2 5 0
0 0 0 0 0 0 0 1 0 0 0 0 0 0 0 0 0 0 0 0 0 0 0 0 0 0 0 0 0 0 0 0 0 0 0 0 0 0 0 5 3 0 0 2 5
11 2 0 0 3 15 28 77 20 5 0 0 0 0 0 0 0 0 0 0 0 0 0 0 0 0 0 0 0 0 0 0 0 0 0 0 0 0 0 0 0 5 3 0 19
39 70 0 3 15 8 28 81 77 51 3 5 5 0 0 0 0 0 0 0 0 0 0 0 0 0 0 0 0 0 0 0 0 0 0 0 14 0 0 0 0 0 4 47 2
7 16 1 15 5 13 34 4 39 100 86 100 88 17 5 4 1 0 0 0 0 0 0 0 0 0 0 0 0 0 0 2 3 0 3 0 100 3 0 0 0 0 0 0 6
5 12 83 21 9 100 99 5 31 36 44 100 99 72 25 5 5 1 4 0 0 0 0 0 0 0 0 0 0 0 0 4 18 92 1 66 16 0 0 0 0 0 0 0 0
79 100 100 96 100 100 16 5 5 5 7 99 100 100 83 6 5 0 1 5 4 0 0 0 0 0 0 0 0 0 5 12 93 100 27 63 1 2 0 0 0 0 0 0 0
80 100 100 100 57 86 67 20 5 5 4 100 99 100 100 71 56 5 4 0 34 10 1 0 0 0 0 0 0 0 5 60 31 81 99 100 90 12 0 0 0 0 0 0 0